Current weather by "City, St" or "zip code"  
 
Advertise Here

Current Conditions: Schaumburg Regional Airport, IL

Fair


73.0 F

Last Updated on Jul 27 2021, 12:35 am CDT
Humidity: 80%
Wind Speed: N 0.0 mph
Barometer 30.06 in
Dewpoint: 66.0 F
Visibility: 10.00 mi
Precip: --
Heat Index: NA
Wind Chill: NA
Current conditions at:

Schaumburg Regional Airport, IL (K06C)

Lat: 41.98934 Lon: 88.10124

Local Radar Image active severe weather and emergency alerts image image weather storm and storm spotter reports image weather observation monitoring service image
Local
Radar
Active
Alerts
Storm Reports Obs
Monitoring

Sign-up For Email & Text Message Weather Alert Notification Services


Advertise Here

Observation History for Schaumburg Regional Airport, IL


Time Wind
(mph)
Vis
(mi)
Weather Precip (in) Temperature (F) Relative
Humidity
Wind
Chill
(F)
Heat
Index
(F)
Pressure
Air Dwpt altimeter
(in)
sea level
(mb)
Rmks
12:35 am CDT N 0.0 10.00 Fair -- 73.0 66.0 80% NA NA 30.06 M
11:55 pm CDT N 0.0 10.00 Fair -- 74.0 65.8 75% NA NA 30.06 M
10:55 pm CDT N 0.0 10.00 Fair -- 75.0 64.4 69% NA NA 30.03 M
9:55 pm CDT N 0.0 10.00 Fair -- 77.0 64.9 66% NA NA 30.02 M
8:55 pm CDT N 0.0 10.00 Fair -- 78.0 64.6 64% NA NA 30.01 M
8:35 pm CDT N 0.0 10.00 Fair -- 79.0 64.2 61% NA NA 30.01 M
7:55 pm CDT N 0.0 10.00 Fair -- 83.0 63.0 52% NA 84 30.01 M
6:55 pm CDT N 0.0 10.00 Fair -- 86.0 60.4 42% NA 86 30.01 M
5:55 pm CDT W 3.5 10.00 Fair -- 88.0 61.5 41% NA 88 30.01 M
4:55 pm CDT N 0.0 10.00 Fair -- 90.0 59.9 36% NA 90 30.02 M
4:35 pm CDT W 3.5 10.00 Fair -- 91.0 61.5 38% NA 91 30.02 M
3:55 pm CDT W 3.5 10.00 Fair -- 91.0 61.5 37% NA 91 30.02 M
3:35 pm CDT S 3.5 10.00 Fair -- 91.0 59.0 35% NA 90 30.03 M
2:55 pm CDT N 3.5 10.00 Fair -- 92.0 52.0 26% NA 89 30.03 M
1:55 pm CDT N 0.0 10.00 Fair -- 91.0 56.5 31% NA 89 30.04 M
12:55 pm CDT N 0.0 10.00 Fair -- 90.0 52.0 28% NA 87 30.05 M
11:55 am CDT N 0.0 10.00 Fair -- 88.0 52.9 30% NA 86 30.05 M
10:55 am CDT N 0.0 10.00 Fair -- 86.0 56.8 37% NA 85 30.05 M
8:15 am CDT N 0.0 10.00 Fair -- 75.0 60.8 61% NA NA 30.05 M
7:35 am CDT N 0.0 10.00 Fair -- 74.0 60.8 64% NA NA 30.04 M
6:55 am CDT N 0.0 10.00 Fair -- 70.0 60.3 71% NA NA 30.04 M
5:55 am CDT N 0.0 10.00 Fair -- 65.0 59.9 83% NA NA 30.02 M
5:35 am CDT N 0.0 10.00 Fair -- 65.0 59.9 82% NA NA 30.02 M
4:55 am CDT N 0.0 10.00 Fair -- 66.0 60.1 80% NA NA 30.01 M

Regional Weather Observation


Chicago / Wheeling, Pal-Waukee Airport, IL (KPWK)

Fair
80.0 F

Burlington Municipal Airport, WI (KBUU)

NULL
68.0 F

Chicago / West Chicago, Dupage Airport, IL (KDPA)

Fair
72.0 F

De Kalb Taylor Municipal Airport, IL (KDKB)

Fair
72.0 F

East Troy Municipal Airport, WI (K57C)

Fair
73.0 F

Chicago/Waukegan Regional Airport, IL (KUGN)

Fair
75.0 F
Advertise Here

Advertise Here